This demonstration page uses our WeatherBlox Daily Observations layout. Learn more.

Hourly Observations for December 13, 2017

Temp ( °F °C ) Dew Point ( °F °C ) Humidity (%) Winds ( mph kmh ) Pressure ( in mb ) Visibility ( mi km ) Precip ( " mm )
12:15 am 00:15 Cloudy 25 -4 5 -15 42 42 NNW 18 30 29.77 1008 10 16.09344 0 0
12:35 am 00:35 Mostly Cloudy 23 -5 5 -15 46 46 NW 21 33 29.77 1008 10 16.09344 0 0
12:55 am 00:55 Partly Cloudy 23 -5 7 -14 50 50 NW 20 31 29.77 1008 10 16.09344 0 0
1:15 am 01:15 Mostly Cloudy 23 -5 7 -14 50 50 NW 22 35 29.8 1009 10 16.09344 0 0
1:35 am 01:35 Cloudy 23 -5 7 -14 50 50 NW 16 26 29.8 1009 10 16.09344 0 0
1:55 am 01:55 Cloudy 23 -5 7 -14 50 50 NW 18 30 29.8 1009 10 16.09344 0 0
2:15 am 02:15 Mostly Cloudy 23 -5 5 -15 46 46 WNW 21 33 29.8 1009 10 16.09344 0 0
2:35 am 02:35 Mostly Cloudy 23 -5 5 -15 46 46 NW 13 20 29.8 1009 10 16.09344 0 0
2:55 am 02:55 Mostly Cloudy 23 -5 5 -15 46 46 WNW 16 26 29.83 1010 10 16.09344 0 0
3:15 am 03:15 Partly Cloudy 23 -5 5 -15 46 46 WNW 14 22 29.83 1010 10 16.09344 0 0
3:35 am 03:35 Partly Cloudy 23 -5 5 -15 46 46 NW 14 22 29.83 1010 10 16.09344 0 0
3:55 am 03:55 Partly Cloudy 23 -5 5 -15 46 46 WNW 13 20 29.83 1010 10 16.09344 0 0
4:15 am 04:15 Partly Cloudy 23 -5 5 -15 46 46 WNW 10 17 29.8 1009 10 16.09344 0 0
4:35 am 04:35 Clear 23 -5 5 -15 46 46 WNW 20 31 29.83 1010 10 16.09344 0 0
4:55 am 04:55 Clear 23 -5 5 -15 46 46 WNW 16 26 29.83 1010 10 16.09344 0 0
5:15 am 05:15 Clear 23 -5 5 -15 46 46 NW 17 28 29.83 1010 10 16.09344 0 0
5:35 am 05:35 Clear 23 -5 5 -15 46 46 WNW 21 33 29.83 1010 10 16.09344 0 0
5:55 am 05:55 Clear 23 -5 5 -15 46 46 WNW 20 31 29.85 1011 10 16.09344 0 0
6:15 am 06:15 Clear 23 -5 5 -15 46 46 WNW 18 30 29.85 1011 10 16.09344 0 0
6:35 am 06:35 Clear 23 -5 5 -15 46 46 WNW 22 35 29.85 1011 10 16.09344 0 0
6:55 am 06:55 Clear 23 -5 5 -15 46 46 NW 21 33 29.85 1011 10 16.09344 0 0
7:15 am 07:15 Clear 23 -5 5 -15 46 46 WNW 24 39 29.85 1011 10 16.09344 0 0
7:35 am 07:35 Sunny 23 -5 5 -15 46 46 NW 23 37 29.88 1012 10 16.09344 0 0
7:55 am 07:55 Sunny 23 -5 5 -15 46 46 WNW 17 28 29.88 1012 10 16.09344 0 0
8:15 am 08:15 Sunny 23 -5 5 -15 46 46 NW 20 31 29.88 1012 10 16.09344 0 0
8:35 am 08:35 Sunny 25 -4 5 -15 42 42 NW 22 35 29.88 1012 10 16.09344 0 0
8:55 am 08:55 Sunny 25 -4 5 -15 42 42 WNW 24 39 29.88 1012 10 16.09344 0 0
9:15 am 09:15 Sunny 27 -3 5 -15 39 39 WNW 24 39 29.88 1012 10 16.09344 0 0
9:35 am 09:35 Sunny 27 -3 7 -14 43 43 WNW 21 33 29.88 1012 10 16.09344 0 0
9:55 am 09:55 Sunny 28 -2 9 -13 43 43 WNW 16 26 29.88 1012 10 16.09344 0 0
10:15 am 10:15 Sunny 28 -2 10 -12 47 47 WNW 26 43 29.88 1012 10 16.09344 0 0
10:35 am 10:35 Sunny 28 -2 10 -12 47 47 WNW 20 31 29.85 1011 10 16.09344 0 0
10:55 am 10:55 Partly Cloudy 30 -1 10 -12 43 43 WNW 21 33 29.88 1012 10 16.09344 0 0
11:15 am 11:15 Partly Cloudy 30 -1 10 -12 43 43 WNW 17 28 29.85 1011 10 16.09344 0 0
11:35 am 11:35 Partly Cloudy 32 0 10 -12 40 40 WNW 13 20 29.85 1011 10 16.09344 0 0
11:55 am 11:55 Sunny 32 0 10 -12 40 40 NW 16 26 29.85 1011 10 16.09344 0 0
12:15 pm 12:15 Sunny 32 0 10 -12 40 40 W 18 30 29.83 1010 10 16.09344 0 0
12:35 pm 12:35 Sunny 32 0 12 -11 44 44 NW 14 22 29.83 1010 10 16.09344 0 0
12:55 pm 12:55 Sunny 32 0 12 -11 44 44 W 13 20 29.83 1010 10 16.09344 0 0
1:15 pm 13:15 Sunny 32 0 12 -11 44 44 W 13 20 29.83 1010 10 16.09344 0 0
1:35 pm 13:35 Sunny 32 0 12 -11 44 44 WNW 12 19 29.83 1010 10 16.09344 0 0
1:55 pm 13:55 Sunny 32 0 12 -11 44 44 W 9 15 29.83 1010 10 16.09344 0 0
2:15 pm 14:15 Sunny 34 1 12 -11 41 41 W 10 17 29.8 1009 10 16.09344 0 0
2:35 pm 14:35 Sunny 34 1 12 -11 41 41 WNW 8 13 29.8 1009 10 16.09344 0 0
2:55 pm 14:55 Sunny 34 1 12 -11 41 41 NW 10 17 29.8 1009 10 16.09344 0 0
3:15 pm 15:15 Sunny 34 1 12 -11 41 41 WNW 5 7 29.8 1009 10 16.09344 0 0
3:35 pm 15:35 Partly Cloudy 34 1 12 -11 41 41 WNW 5 7 29.8 1009 10 16.09344 0 0
3:55 pm 15:55 Cloudy 34 1 12 -11 41 41 W 5 7 29.77 1008 10 16.09344 0 0
4:15 pm 16:15 Cloudy 34 1 12 -11 41 41 WSW 3 6 29.77 1008 10 16.09344 0 0
4:35 pm 16:35 Cloudy 34 1 12 -11 41 41 SSW 3 6 29.77 1008 10 16.09344 0 0
4:55 pm 16:55 Cloudy 34 1 12 -11 41 41 Calm 29.77 1008 10 16.09344 0 0
5:15 pm 17:15 Mostly Cloudy 34 1 12 -11 41 41 S 5 7 29.77 1008 10 16.09344 0 0
5:35 pm 17:35 Cloudy 34 1 12 -11 41 41 S 6 9 29.77 1008 10 16.09344 0 0
5:55 pm 17:55 Cloudy 34 1 12 -11 41 41 S 6 9 29.74 1007 10 16.09344 0 0
6:15 pm 18:15 Cloudy 34 1 12 -11 41 41 S 7 11 29.74 1007 10 16.09344 0 0
6:35 pm 18:35 Cloudy 34 1 14 -10 44 44 SSW 7 11 29.74 1007 10 16.09344 0 0
6:55 pm 18:55 Cloudy 34 1 14 -10 44 44 SSW 7 11 29.74 1007 10 16.09344 0 0
7:15 pm 19:15 Cloudy 34 1 16 -9 48 48 SW 6 9 29.74 1007 10 16.09344 0 0
7:35 pm 19:35 Cloudy 34 1 18 -8 51 51 S 7 11 29.71 1006 10 16.09344 0 0
7:55 pm 19:55 Cloudy 34 1 14 -10 44 44 S 10 17 29.68 1005 10 16.09344 0 0
8:15 pm 20:15 Cloudy 34 1 16 -9 48 48 S 7 11 29.68 1005 10 16.09344 0 0
8:35 pm 20:35 Cloudy 34 1 14 -10 44 44 SSE 10 17 29.68 1005 10 16.09344 0 0
8:55 pm 20:55 Cloudy 34 1 14 -10 44 44 S 7 11 29.68 1005 10 16.09344 0 0
9:15 pm 21:15 Cloudy 34 1 14 -10 44 44 S 7 11 29.68 1005 10 16.09344 0 0
9:35 pm 21:35 Cloudy 34 1 14 -10 44 44 S 6 9 29.68 1005 10 16.09344 0 0
9:55 pm 21:55 Cloudy 34 1 14 -10 44 44 SSE 5 7 29.65 1004 10 16.09344 0 0
10:15 pm 22:15 Cloudy 34 1 14 -10 44 44 SSE 9 15 29.65 1004 10 16.09344 0 0
10:35 pm 22:35 Cloudy 34 1 16 -9 48 48 S 9 15 29.62 1003 10 16.09344 0 0
10:55 pm 22:55 Cloudy 34 1 14 -10 44 44 S 6 9 29.62 1003 10 16.09344 0 0
11:15 pm 23:15 Cloudy 34 1 16 -9 48 48 S 5 7 29.62 1003 10 16.09344 0 0
11:35 pm 23:35 Cloudy 34 1 16 -9 48 48 S 6 9 29.62 1003 10 16.09344 0 0
11:55 pm 23:55 Cloudy 34 1 18 -8 51 51 S 8 13 29.59 1002 10 16.09344 0 0

Powered by AerisWeather